Regional Weather Roundup
Issued by NWS Grand Forks, ND

Home | Current Version | Previous Version | Graphics & Text | Print | Product List | Glossary On
Versions: 1 2 3 4 5 6 7 8 9 10 11 12 13 14 15 16 17 18 19 20 21 22 23 24 25 26 27 28 29 30 31 32 33 34 35 36 37 38 39 40 41 42 43 44 45 46 47 48 49 50
760
ASUS43 KFGF 071610
RWRFGF
PRAIRIE TO PINES  WEATHER ROUNDUP
NATIONAL WEATHER SERVICE EASTERN NORTH DAKOTA/GRAND FORKS ND
1000 AM CST SUN FEB 07 2016

 **SATELLITE DATA USED TO AUGMENT SKY COVER AT AUTOMATED STATIONS**
 *****  WEATHER ACROSS EASTERN NORTH DAKOTA  *****

CITY           SKY/WX    TMP DP  RH WIND       PRES   REMARKS
GRAND FORKS    LGT SNOW  32  28  85 N21       29.60R VSB 3/4 WCI  20
GRAND FRKS AFB LGT SNOW  32  29  92 N18G25    29.61R FOG     WCI  20
GRAND FRKS NWS   N/A     30 N/A N/A N16         N/A  WCI  19
DEVILS LAKE    CLOUDY    30  23  74 NW39G46   29.67R WCI  13
FARGO          LGT SNOW  36  30  79 W22       29.61R
WAHPETON ARPT  CLOUDY    36  28  75 W20G30    29.64S
$$

 ***** WEATHER ACROSS CENTRAL AND WESTERN NORTH DAKOTA  *****

CITY           SKY/WX    TMP DP  RH WIND       PRES   REMARKS
BISMARCK       CLOUDY    34  21  59 NW32G60   29.85R WCI  20
MINOT          FLURRIES  29  16  58 NW29G43   29.86R WCI  14
JAMESTOWN      CLOUDY    33  27  78 NW29G38   29.69R WCI  19
MINOT AFB      MIX PCPN  26  18  69 NW29G41   29.85R WCI  10
GARRISON         N/A     27  18  69 NW39G58   29.86R WCI   9
WILLISTON      PTSUNNY   31  20  63 NW30G49   30.06R WCI  16
DICKINSON      LGT SNOW  28  21  75 NW32G41   29.98R WCI  12
HETTINGER      CLOUDY    31  20  63 NW40G56   30.01R WCI  14
$$

 *****  OTHER AIRPORT OBSERVATIONS IN OUR AREA  *****

CITY           SKY/WX    TMP DP  RH WIND       PRES   REMARKS
WALHALLA       FAIR      23  23 100 N25G36    29.68R WCI   7
GRAFTON AIRPOR FLURRIES  28  27  93 N23G33    29.62R WCI  14
VALLEY CITY AR NOT AVBL
CANDO          NOT AVBL
CAVALIER APRT  NOT AVBL
GWINNER        CLOUDY    36  32  87 W25       29.68S
SHEYENNE NWR     N/A     36  28  72 NW17      29.95S
ROLLA          MIX PCPN  23  18  80 NW39G49   29.72R WCI   3
 ***** THE ABOVE OBSERVATIONS ARE NON NWS ARE NOT QUALITY
       CONTROLLED AND MAY MIS-REPORT RAIN FOR SNOW...
$$

  *****  WEATHER ACROSS NORTHERN MINNESOTA  *****

CITY           SKY/WX    TMP DP  RH WIND       PRES   REMARKS
FLAG ISLAND    LGT SNOW  27  25  93 NW20G25   29.42R WCI  13
WARROAD        LGT SNOW  28  25  86 W14G20    29.46R WCI  17
ROSEAU         LGT SNOW  27  23  86 NW14      29.48R VSB 3/4 WCI  15
HALLOCK        SNOW      25  21  86 NW35G40   29.58R VSB 1/4 WCI   7
THF RVR FALLS  NOT AVBL
BAUDETTE       LGT SNOW  29  25  85 NW14      29.42R FOG     WCI  18
WASKISH        LGT SNOW  30  28  93 W14G20    29.44R WCI  20
CROOKSTON      LGT SNOW  32  30  93 N18       29.59R WCI  20
STEPHEN NDAWN    N/A     25  21  86 N32         N/A  WCI   7
GREENBUSH NDAW   N/A     25  23  93 NW22        N/A  WCI  10
$$
  *****  WEATHER ACROSS CENTRAL AND WEST MINNESOTA  *****

CITY           SKY/WX    TMP DP  RH WIND       PRES   REMARKS
FOSSTON        LGT SNOW  30  28  93 W16G23    29.53R WCI  19
BEMIDJI        LGT SNOW  32  31  96 W17G23    29.47R VSB 1   WCI  21
PARK RAPIDS    LGT SNOW  33  29  85 W22G28    29.51R FOG     WCI  21
ELBOW LAKE     CLOUDY    34  28  79 NW20G26   29.64S HAZE    WCI  22
WADENA         LGT RAIN  34  28  80 W18G25    29.55R WCI  23
DETROIT LAKES  LGT SNOW  32  32 100 W18G31    29.57R WCI  20
MOORHEAD       LGT RAIN  34  30  86 W23G31    29.61S WCI  22
FERGUS FALLS   CLOUDY    36  28  75 W20G26    29.64S
MORRIS MN      PTSUNNY   36  27  69 W22G29    29.65S
STAPLES        CLOUDY    34  27  75 W21G30    29.55R WCI  22
$$
  *****  WEATHER ELSEWHERE ACROSS MINNESOTA  *****

CITY           SKY/WX    TMP DP  RH WIND       PRES   REMARKS
DULUTH         FLURRIES  34  31  88 W15       29.43S WCI  24
INTRNTL FALLS  CLOUDY    33  30  88 W7        29.39R
ELY            LGT SNOW  32  30  93 CALM      29.39S
CLOQUET        CLOUDY    34  32  93 W12       29.45R
WHEATON        CLOUDY    37  28  70 W16G23    29.69S
BRAINERD       CLOUDY    34  28  79 W18G26    29.52S WCI  23
HIBBING        FLURRIES  32  30  92 W5        29.42R
ALEXANDRIA     CLOUDY    35  26  69 W21G33    29.61S WCI  24
SAINT CLOUD    SUNNY     37  26  64 W22G36    29.58S
MINNEAPOLIS    MOSUNNY   39  26  59 W20G28    29.62F
$$

  *****  WEATHER ACROSS SOUTH DAKOTA  *****

CITY           SKY/WX    TMP DP  RH WIND       PRES   REMARKS
SIOUX FALLS    MOSUNNY   37  27  67 W21G31    29.83F
BROOKINGS      MOSUNNY   36  25  64 W29G37    29.76F
WATERTOWN      CLOUDY    35  24  64 W18       29.73S WCI  24
HURON          CLOUDY    36  25  64 NW35G47   29.84F
SISSETON         N/A     37  27  67 NW24G32   29.68S
ABERDEEN       LGT SNOW  34  29  82 W23G29    29.79R WCI  22
MITCHELL       PTSUNNY   37  27  67 W21G31    29.89F
PIERRE         CLOUDY    37  22  54 NW43G56   29.93R
MOBRIDGE       LGT SNOW  33  29  85 NW25G36   29.84R FOG     WCI  20
RAPID CITY     SUNNY     36  10  34 NW45G60   30.11S
$$

  *****  SOME WEATHER IN NEARBY STATES *****

CITY           SKY/WX    TMP DP  RH WIND       PRES   REMARKS
GLASGOW MT     SUNNY     29  18  63 NW25G33   30.26R WCI  14
GREAT FALLS MT CLOUDY    26  17  68 SW9       30.45R WCI  17
CHEYENNE WY    CLOUDY    24  19  81 N16G22    30.26R WCI  11
SCOTTSBLUFF NE CLOUDY    31  22  69 NW15      30.29R WCI  20
OMAHA NE       MOSUNNY   41  26  55 W18       29.99R
DES MOINES IA  MOSUNNY   41  25  53 NW21G30   29.90R
DAVENPORT IA   MOSUNNY   36  29  75 W16       29.81S
CHICAGO IL     CLOUDY    40  29  64 SW17G23   29.78F
EAU CLAIRE WI  CLOUDY    36  28  73 SW12      29.59F
LA CROSSE WI   CLOUDY    38  27  64 W10       29.68F
$$

  *****  SOME NATIONAL WEATHER *****

CITY           SKY/WX    TMP DP  RH WIND       PRES   REMARKS
LA GUARDIA NY  MOSUNNY   43  23  45 NW5       30.15F
RALEIGH NC     CLOUDY    39  23  52 VRB6      30.04F
ATLANTA GA     SUNNY     47  23  38 NW12      30.17S
NEW ORLEANS LA MOSUNNY   54  26  34 N3        30.31F
OKLAHOMA CITY  CLOUDY    42  28  57 SW7       30.15F
ALBUQUERQUE NM MOSUNNY   38  17  42 N7        30.39R
SALT LAKE CITY MOSUNNY   26  20  77 SE7       30.58R WCI  18
LOS ANGELES CA SUNNY     62  25  24 CALM      30.14R
BOISE ID       PTCLDY    30  28  92 CALM      30.60R FOG
SEATTLE WA     MOCLDY    40  36  86 E3        30.54R
$$

*** WEATHER ACROSS MANITOBA...SASKATCHEWAN AND ONTARIO ***
                ***ONTARIO***

CITY           SKY/WX    TMP DP  RH WIND       PRES   REMARKS
GERALDTON      LGT SNOW   1  -4  78 E16       29.72S VSB 3/4 WCI -18
THUNDER BAY    FLURRIES  25  23  93 E20       29.52F WCI  11
SIOUX LOOKOUT  LGT SNOW  12   9  85 VRB7      29.49R DRFTSNOWWCI   2
TORONTO        PTSUNNY   39  27  60 S7        30.00F
BIG TROUT LK   SUNNY    -11 -20  64 E9G17     29.96R WCI -29
PICKLE LAKE    FLURRIES   1  -6  71 E15G23    29.68R WCI -18
DRYDEN         LGT SNOW  19  18  93 NE14      29.41R WCI   6
KENORA         LGT SNOW  27  27 100 N8        29.40R VSB 1   WCI  18
$$
                *** MANITOBA***

CITY           SKY/WX    TMP DP  RH WIND       PRES   REMARKS
BRANDON        FLURRIES  19  12  73 NW29G37   29.80R WCI   1
DAUPHIN        CLOUDY    14   7  73 N16G25    29.87R WCI  -2
ISLAND LAKE    FLURRIES   0  -8  71 NE9       29.79R WCI -16
PILOT MOUND      N/A     19  16  86 N22G30      N/A  WCI   3
THE PAS        FLURRIES   3  -2  78 NW10G18   29.98R WCI -12
THOMPSON       LGT SNOW  -8 -15  71 N9        29.92R WCI -25
WINNIPEG       LGT SNOW  18  16  93 NW36      29.64R VSB 1   WCI  -3
LYNN LAKE      FLURRIES  -4  -9  77 N9        29.95R WCI -20
CHURCHILL      CLOUDY   -13 -20  70 SE12      30.17R WCI -33
GILLAM         CLOUDY   -11 -18  70 E8G18     30.00R WCI -28
$$
                ***SASKATCHEWAN***

CITY           SKY/WX    TMP DP  RH WIND       PRES   REMARKS
ESTEVAN        CLOUDY    23  18  80 NW38G49   29.98R WCI   4
KINDERSLEY     CLEAR     23  16  74 W17       30.25R WCI   9
LLOYDMINSTER   PTCLDY    23  16  74 W17       30.21R WCI   9
PRINCE ALBERT  CLOUDY    23  18  80 NW16      30.08R WCI  10
REGINA         PTSUNNY   25  19  80 NW32G41   30.07R WCI   7
YORKTON        LGT SNOW  16  10  79 NW29G41   29.94R WCI  -4
N. BATTLEFORD  CLEAR     25  16  68 NW16G23   30.19R WCI  12
LA RONGE       FLURRIES  12   7  79 NW14G20   30.06R WCI  -3
SASKATOON      PTCLDY    23  18  80 NW17      30.16R WCI   9
SWIFT CURRENT  SUNNY     25  18  74 W22G30    30.21R WCI  10
$$
NOTE: THESE ARE AUTOMATED STATIONS WITH LIMITED QUALITY CONTROL
      "FAIR" INDICATES FEW OR NO CLOUDS BELOW 12,000 FEET WITH NO
      SIGNIFICANT WEATHER AND/OR OBSTRUCTIONS TO VISIBILITY.
      SKY/WX - SKY CONDITION AND SIGNIFICANT WEATHER.
      TMP - AIR TEMPERATURE.    DP   - DEWPOINT TEMPERATURE.
      RH  - RELATIVE HUMIDITY.  PRES - PRESSURE.
      HX  - HEAT INDEX.         WCI  - WIND CHILL INDEX.
$




USA.gov is the U.S. government's official web portal to all federal, state and local government web resources and services.